Location: Gwatt
(46.7204°N, 7.6223°E)
Time: 01:13:10
(UTC+00:00)

Vanguard 3 - Pass Details

Date: 25 January 2021
Orbit: 508 x 3262 km, 33.4° (Epoch: 03 March)

Event Time Altitude Azimuth Distance (km) Brightness Sun altitude
Exits shadow 03:05:16 26° 148° (SSE) 2,361 9.5 -40.2°
Drops below altitude 10° 03:12:45 10° 105° (ESE) 4,226 11.3 -39.0°
Sets 03:17:51 0° 95° (E) 5,751 12.3 -38.1°
